Regional Weather Roundup
Issued by NWS

Home | Current Version | Previous Version | Graphics & Text | Print | Product List | Glossary On
Versions: 1 2 3 4 5 6 7 8 9 10 11 12 13 14 15 16 17 18 19 20 21 22 23 24 25 26 27 28 29 30 31 32 33 34 35 36 37 38 39 40 41 42 43 44 45 46 47 48 49 50
000
ASUS43 KMPX 272101
RWRMN
WEATHER ROUNDUP FOR MINNESOTA
NATIONAL WEATHER SERVICE TWIN CITIES/CHANHASSEN MN
400 PM CDT FRI MAR 27 2015


NOTE: "FAIR" INDICATES FEW OR NO CLOUDS BELOW 12,000 FEET WITH NO
SIGNIFICANT WEATHER AND/OR OBSTRUCTIONS TO VISIBILITY. N/A MEANS
CURRENT SKY AND/OR WEATHER CONDITIONS ARE NOT AVAILABLE.

MNZ060>063-068>070-272200-
   Twin Cities Metro

CITY           SKY/WX    TMP DP  RH WIND       PRES   REMARKS
TWIN CITIES    MOSUNNY   35   4  27 VRB3      30.16F
ST PAUL        SUNNY     36   0  21 VRB5      30.18F
CRYSTAL        SUNNY     36   2  23 E3        30.15F
BLAINE         MOSUNNY   37   0  20 S9        30.16F
LAKEVILLE      SUNNY     28   7  40 SW3       30.17F
EDEN PRAIRIE   SUNNY     33   8  35 S7        30.16F WCI  27
SOUTH ST PAUL  SUNNY     35   7  30 S9        30.17F WCI  28
LAKE ELMO      FAIR      36   3  25 W3        30.17F
$$
MNZ001>005-007-008-013>017-022>024-027-028-272200-
   Northwest Minnesota

CITY           SKY/WX    TMP DP  RH WIND       PRES   REMARKS
BEMIDJI        PTSUNNY   35   4  27 CALM      30.08F
HALLOCK        CLOUDY    32  18  55 S15       30.09S WCI  22
ROSEAU         CLOUDY    34  12  40 S9        30.11S WCI  26
WARROAD        CLOUDY    32  12  43 SE5       30.11F WCI  27
THIEF RVR FALL CLOUDY    34  10  37 S8        30.10F WCI  27
CROOKSTON      CLOUDY    34   7  32 S3        30.11F
FOSSTON        PTSUNNY   37   7  28 S9        30.09F
DETROIT LAKES  CLOUDY    32   7  34 S10       30.09F WCI  24
MOORHEAD       CLOUDY    36  -4  18 S14       30.10F
PARK RAPIDS    PTSUNNY   35   1  23 MISG      30.08F
MAHNOMEN       FAIR      34   6  31 SW12G18   30.09F WCI  25
$$
MNZ006-009>011-018-025>026-272200-
   North Central Minnesota

CITY           SKY/WX    TMP DP  RH WIND       PRES   REMARKS
BAUDETTE       PTSUNNY   33   7  33 S6        30.10F WCI  28
FLAG ISLAND    CLOUDY    27   9  46 SE9       30.11F WCI  17
INTL FALLS     SUNNY     34   3  27 W7        30.11F WCI  28
WASKISH        PTSUNNY   30  12  47 CALM      30.12F
BIG FORK       SUNNY     36   3  25 S6        30.10F
LONGVILLE      MOSUNNY   34   1  25 SW8       30.10F WCI  27
GRAND RAPIDS   SUNNY     34   0  23 CALM      30.11F
CRANE LAKE     SUNNY     32  -4  21 SW5       30.14F WCI  27
ORR            SUNNY     36  -4  18 CALM      30.09S
COOK           SUNNY     34   1  25 S3        30.11F
WALKER         FAIR      32   4  31 SE6       30.10F WCI  27
$$
MNZ012-019>021-037-272200-
   Northeast Minnesota

CITY           SKY/WX    TMP DP  RH WIND       PRES   REMARKS
DULUTH         SUNNY     29   6  38 SE9       30.13F WCI  20
ELY            SUNNY     30  -6  21 S3        30.11F
HIBBING        SUNNY     34   1  24 SE5       30.10F WCI  30
EVELETH        SUNNY     34   1  25 S8        30.12S WCI  27
DULUTH HARBOR  SUNNY     28  12  50 CALM      30.20F
TWO HARBORS    SUNNY     30  12  47 E6        30.15F WCI  24
SILVER BAY     SUNNY     27  10  50 E5        30.16S WCI  21
GRAND MARAIS     N/A     21   8  57 SW3       30.22F
G MARAIS ARPRT SUNNY     19   1  45 S7        30.12F WCI  10
$$
MNZ029>031-032-039>041-046>048-054>057-064-272200-
   West Central Minnesota

CITY           SKY/WX    TMP DP  RH WIND       PRES   REMARKS
FERGUS FALLS   CLOUDY    34   3  27 S12       30.13F WCI  25
WHEATON        CLOUDY    34  12  40 SE8       30.12F WCI  27
MORRIS         CLOUDY    34  14  44 SE10      30.11F WCI  26
ALEXANDRIA     PTSUNNY   31   9  39 VRB6      30.12F WCI  25
ELBOW LAKE     PTSUNNY   32   8  36 S10       30.11F WCI  24
WADENA         PTSUNNY   34   7  32 S9        30.10F WCI  26
GLENWOOD       PTSUNNY   34  10  37 S8        30.13F WCI  27
APPLETON       CLOUDY    37   3  23 S6        30.11F
BENSON         CLOUDY    36   9  32 W8        30.13F
ORTONVILLE     CLOUDY    36   7  30 S5        30.10F
MADISON        CLOUDY    37   3  23 S9        30.10F
WILLMAR        FAIR      34  14  44 S3        30.15F
$$
MNZ033>034-036-042>043-049>051-058-059-272200-
   Central Minnesota

CITY           SKY/WX    TMP DP  RH WIND       PRES   REMARKS
ST CLOUD       MOSUNNY   33   3  28 E3        30.14F
SAUK CENTRE    FAIR      33  10  39 S7        30.13F WCI  26
PAYNESVILLE    MOSUNNY   29  10  45 SE8       30.15F WCI  21
AITKIN         SUNNY     36 -20   8 SE7       30.12F
PINE RIVER     MOSUNNY   34   9  35 S12       30.13F WCI  25
BRAINERD       SUNNY     33  -1  23 CALM      30.12F
STAPLES        MOSUNNY   34   1  25 SW5       30.11F WCI  30
LONG PRAIRIE   FAIR      32   9  37 S6        30.12F WCI  26
LITTLE FALLS   MOSUNNY   34   0  23 CALM      30.13F
LITCHFIELD     MOSUNNY   32  10  40 S3        30.16F
MAPLE LAKE     MOSUNNY   35  11  37 S5        30.16F WCI  31
$$
MNZ037-044-045-052-053-272200-
   East Central Minnesota

CITY           SKY/WX    TMP DP  RH WIND       PRES   REMARKS
PRINCETON      SUNNY     37   0  20 S5        30.15F
MORA           SUNNY     32   5  32 SW6       30.16F WCI  26
CAMBRIDGE      SUNNY     37  14  38 S6        30.13F
RUSH CITY      SUNNY     34   6  30 W3        30.15F
MOOSE LAKE     SUNNY     36   3  25 CALM      30.12F
HINCKLEY       FAIR      34   5  29 CALM      30.15F
CLOQUET        SUNNY     34   0  23 SE8       30.12F WCI  27
MCGREGOR       SUNNY     34   5  29 SW3       30.13F
$$
MNZ071>073-080-081-089-090-097-098-272200-
   Southwest Minnesota

CITY           SKY/WX    TMP DP  RH WIND       PRES   REMARKS
MONTEVIDEO     CLOUDY    37  12  35 S7        30.13F
GRANITE FALLS  CLOUDY    35  10  35 SE6       30.14F WCI  30
CANBY          CLOUDY    37   3  24 S6        30.11F
MARSHALL       CLOUDY    36   5  27 S8        30.11F
REDWOOD FALLS  PTSUNNY   36  14  40 S12G20    30.13F
OLIVIA         MOSUNNY   32  18  55 S7        30.14F WCI  26
PIPESTONE      CLOUDY    34   9  35 SW12      30.08F WCI  25
WINDOM         CLOUDY    36   5  27 S6        30.12F
WORTHINGTON    CLOUDY    34   7  32 S9        30.12F WCI  26
JACKSON        CLOUDY    34   0  23 S3        30.13F
TRACY          CLOUDY    37   6  27 S6        30.11F
SLAYTON        CLOUDY    34   1  24 CALM      30.10F
$$
MNZ065>067-074>077-082>085-091>093-272200-
   South Central Minnesota

CITY           SKY/WX    TMP DP  RH WIND       PRES   REMARKS
MANKATO        MOSUNNY   30  10  43 SE8       30.17F WCI  23
NEW ULM        MOSUNNY   34  14  44 S7        30.15F WCI  28
ST JAMES       MOSUNNY   37  12  35 SE3       30.15F
FAIRMONT       FAIR      36   5  27 S8        30.14F
GLENCOE        PTSUNNY   31  10  41 S5        30.17F WCI  26
FARIBAULT      SUNNY     32   7  34 CALM      30.18F
OWATONNA       SUNNY     28   5  37 CALM      30.17F
WASECA         SUNNY     32  14  47 CALM      30.19F
ALBERT LEA     SUNNY     34  12  40 NW7       30.16F WCI  28
$$
MNZ078>079-086>088-094>096-272200-
   Southeast Minnesota

CITY           SKY/WX    TMP DP  RH WIND       PRES   REMARKS
ROCHESTER      SUNNY     28   7  41 W3        30.18F
RED WING       SUNNY     36   7  30 W6        30.18F
STANTON        SUNNY     31   6  34 CALM      30.18F
DODGE CENTER   SUNNY     27   3  36 NW5       30.17F WCI  21
WINONA         SUNNY     34  10  37 N3        30.19F
AUSTIN         SUNNY     30  10  43 N7        30.17F WCI  23
PRESTON        SUNNY     28   9  45 CALM      30.18S
$$
ABBREVIATIONS USED IN REMARKS
   TC - TEMPERATURES IN CELSIUS
  WCI - WIND CHILL INDEX
   HX - HEAT INDEX
  VSB - VISIBILITY
$$



USA.gov is the U.S. government's official web portal to all federal, state and local government web resources and services.